WA6MHA-11 Weather Reports


time (UTC)temp
C
wind
direction
speed
KPH
gust
KPH
rain 1hr
cm
rain 24hr
cm
rain mn
cm
humidity
%
barometer
mb
20211208140101 4 315 3.2 3.2 0.00 0.00 0.00 62 1019.1
20211208134054 4 0 1.6 1.6 0.00 0.00 0.00 62 1018.7
20211208133654 4 225 0.0 0.0 0.00 0.00 0.00 62 1018.6
20211208132851 4 243 1.6 1.6 0.00 0.00 0.00 62 1018.5
20211208132048 4 90 0.0 1.6 0.00 0.00 0.00 62 1018.6
20211208131648 4 210 0.0 0.0 0.00 0.00 0.00 62 1018.8
20211208130844 4 180 0.0 1.6 0.00 0.00 0.00 62 1018.7
20211208130042 4 0 0.0 0.0 0.00 0.00 0.00 62 1018.6
20211208125640 4 0 1.6 1.6 0.00 0.00 0.00 62 1018.5
20211208123232 5 225 0.0 3.2 0.00 0.00 0.00 62 1017.9
20211208122430 5 180 3.2 3.2 0.00 0.00 0.00 62 1017.8
20211208121628 5 180 0.0 1.6 0.00 0.00 0.00 62 1017.8
20211208121226 5 182 1.6 3.2 0.00 0.00 0.00 62 1017.8
20211208120418 5 315 1.6 3.2 0.00 0.00 0.00 62 1017.9
20211208115214 5 315 1.6 1.6 0.00 0.00 0.00 62 1017.7
20211208114814 5 45 0.0 1.6 0.00 0.00 0.00 62 1017.4
20211208114148 5 315 0.0 1.6 0.00 0.00 0.00 62 1017.4
20211208114010 5 315 0.0 1.6 0.00 0.00 0.00 62 1017.4
20211208113609 5 0 1.6 1.6 0.00 0.00 0.00 62 1017.4
20211208113208 5 243 0.0 0.0 0.00 0.00 0.00 62 1017.5
20211208112003 5 225 0.0 0.0 0.00 0.00 0.00 62 1017.5
20211208111603 5 225 0.0 1.6 0.00 0.00 0.00 62 1017.4
20211208110359 5 0 0.0 1.6 0.00 0.00 0.00 62 1017.5
20211208105957 5 351 1.6 1.6 0.00 0.00 0.00 62 1017.5
20211208105556 5 225 0.0 0.0 0.00 0.00 0.00 62 1017.4
20211208105156 5 225 0.0 0.0 0.00 0.00 0.00 62 1017.5
20211208104753 5 225 0.0 0.0 0.00 0.00 0.00 62 1017.5
20211208103951 6 0 0.0 1.6 0.00 0.00 0.00 62 1017.4
20211208103148 5 0 0.0 1.6 0.00 0.00 0.00 62 1017.5
20211208102346 5 240 0.0 0.0 0.00 0.00 0.00 62 1017.6
20211208101945 5 247 0.0 0.0 0.00 0.00 0.00 62 1017.6
20211208101544 6 135 0.0 0.0 0.00 0.00 0.00 62 1017.6
20211208101142 6 45 0.0 1.6 0.00 0.00 0.00 62 1017.7
20211208100740 6 180 0.0 1.6 0.00 0.00 0.00 62 1017.8
20211208095938 6 180 3.2 3.2 0.00 0.00 0.00 62 1017.8
20211208094734 6 315 0.0 1.6 0.00 0.00 0.00 62 1018.0
20211208094333 6 315 1.6 1.6 0.00 0.00 0.00 62 1018.0
20211208093932 6 270 1.6 1.6 0.00 0.00 0.00 61 1017.9
20211208093530 6 270 1.6 1.6 0.00 0.00 0.00 61 1017.9
20211208093129 6 225 0.0 0.0 0.00 0.00 0.00 61 1017.9
20211208092327 6 225 0.0 0.0 0.00 0.00 0.00 61 1018.0
20211208091530 6 225 1.6 3.2 0.00 0.00 0.00 61 1018.0
20211208091123 6 225 1.6 1.6 0.00 0.00 0.00 61 1018.1
20211208090724 6 225 1.6 1.6 0.00 0.00 0.00 61 1018.1
20211208085922 6 180 0.0 0.0 0.00 0.00 0.00 61 1018.3
20211208084717 7 225 0.0 1.6 0.00 0.00 0.00 61 1018.3
20211208084314 7 270 1.6 1.6 0.00 0.00 0.00 61 1018.4
20211208083110 7 225 0.0 1.6 0.00 0.00 0.00 61 1018.6
20211208082709 7 225 1.6 1.6 0.00 0.00 0.00 61 1018.6
20211208081104 7 0 0.0 0.0 0.00 0.00 0.00 61 1018.6
20211208080702 7 315 0.0 0.0 0.00 0.00 0.00 61 1018.7
20211208075459 7 315 0.0 1.6 0.00 0.00 0.00 61 1018.6
20211208075058 7 315 1.6 1.6 0.00 0.00 0.00 61 1018.6
20211208073051 7 315 0.0 1.6 0.00 0.00 0.00 61 1018.6
20211208065842 7 234 0.0 0.0 0.00 0.00 0.00 61 1018.7
20211208060222 8 180 0.0 1.6 0.00 0.00 0.00 60 1018.4
20211208055822 8 180 1.6 1.6 0.00 0.00 0.00 60 1018.4
20211208055019 8 0 3.2 3.2 0.00 0.00 0.00 59 1018.3
20211208054216 8 180 1.6 3.2 0.00 0.00 0.00 59 1018.2
20211208053815 8 225 1.6 1.6 0.00 0.00 0.00 59 1018.2
20211208053416 8 0 0.0 1.6 0.00 0.00 0.00 59 1018.1
20211208053013 8 0 1.6 1.6 0.00 0.00 0.00 59 1018.1
20211208052612 8 0 0.0 0.0 0.00 0.00 0.00 59 1018.0
20211208052210 8 270 0.0 0.0 0.00 0.00 0.00 59 1017.8
20211208051809 9 274 0.0 0.0 0.00 0.00 0.00 59 1017.8
20211208051408 9 270 0.0 1.6 0.00 0.00 0.00 59 1017.9
20211208050606 9 180 0.0 1.6 0.00 0.00 0.00 59 1017.9
20211208050204 9 180 0.0 0.0 0.00 0.00 0.00 59 1017.7
20211208045401 9 90 0.0 0.0 0.00 0.00 0.00 59 1017.6
20211208044558 9 90 0.0 0.0 0.00 0.00 0.00 58 1017.6
20211208044157 9 90 0.0 0.0 0.00 0.00 0.00 58 1017.7
20211208043757 9 90 0.0 1.6 0.00 0.00 0.00 58 1017.6
20211208043356 9 90 0.0 0.0 0.00 0.00 0.00 58 1017.5
20211208042953 9 90 0.0 0.0 0.00 0.00 0.00 58 1017.5
20211208042552 9 90 0.0 0.0 0.00 0.00 0.00 58 1017.5
20211208042151 10 90 0.0 0.0 0.00 0.00 0.00 58 1017.4
20211208041350 10 180 0.0 1.6 0.00 0.00 0.00 58 1017.5
20211208040948 10 180 1.6 1.6 0.00 0.00 0.00 58 1017.4
20211208040545 10 225 1.6 3.2 0.00 0.00 0.00 58 1017.5
20211208035743 10 270 0.0 1.6 0.00 0.00 0.00 57 1017.5
20211208035342 10 270 1.6 1.6 0.00 0.00 0.00 57 1017.5
20211208034941 10 274 1.6 1.6 0.00 0.00 0.00 57 1017.4
20211208033736 11 315 1.6 1.6 0.00 0.00 0.00 57 1017.4
20211208033337 11 315 0.0 1.6 0.00 0.00 0.00 56 1017.3
20211208032533 11 315 0.0 1.6 0.00 0.00 0.00 56 1017.3
20211208031730 11 0 0.0 0.0 0.00 0.00 0.00 56 1017.3
20211208031329 11 270 0.0 1.6 0.00 0.00 0.00 56 1017.4
20211208030929 12 135 0.0 0.0 0.00 0.00 0.00 56 1017.3
20211208030125 12 270 0.0 0.0 0.00 0.00 0.00 55 1017.2
20211208025724 12 270 0.0 0.0 0.00 0.00 0.00 55 1017.2
20211208025323 12 270 0.0 0.0 0.00 0.00 0.00 55 1017.3
20211208024921 12 270 0.0 0.0 0.00 0.00 0.00 55 1017.2
20211208024520 12 270 0.0 0.0 0.00 0.00 0.00 55 1017.2
20211208024119 12 270 0.0 0.0 0.00 0.00 0.00 55 1017.2
20211208023718 13 225 0.0 1.6 0.00 0.00 0.00 55 1017.3
20211208022915 13 247 0.0 0.0 0.00 0.00 0.00 54 1017.3
20211208022116 13 180 0.0 0.0 0.00 0.00 0.00 54 1017.2
20211208021711 13 135 0.0 1.6 0.00 0.00 0.00 54 1017.2
20211208021311 13 128 0.0 3.2 0.00 0.00 0.00 54 1017.1
20211208020908 14 135 1.6 3.2 0.00 0.00 0.00 54 1017.1
20211208020509 14 92 1.6 4.8 0.00 0.00 0.00 54 1017.1
20211208020110 14 90 0.0 6.4 0.00 0.00 0.00 54 1017.1
20211208015706 14 108 1.6 1.6 0.00 0.00 0.00 53 1017.0
20211208015305 14 45 0.0 0.0 0.00 0.00 0.00 53 1017.1
20211208014903 14 90 0.0 1.6 0.00 0.00 0.00 53 1017.0
20211208014059 14 94 1.6 4.8 0.00 0.00 0.00 53 1017.0
20211208013658 14 90 1.6 3.2 0.00 0.00 0.00 53 1017.1
20211208013259 14 90 0.0 3.2 0.00 0.00 0.00 53 1017.0
20211208012857 14 182 0.0 3.2 0.00 0.00 0.00 53 1017.1
20211208012455 14 130 0.0 3.2 0.00 0.00 0.00 52 1017.1
20211208011653 15 151 1.6 1.6 0.00 0.00 0.00 52 1017.1
20211208011250 15 135 0.0 1.6 0.00 0.00 0.00 52 1017.1
20211208010451 15 180 4.8 4.8 0.00 0.00 0.00 51 1017.1
20211208005245 15 146 0.0 8.0 0.00 0.00 0.00 51 1017.0
20211208004443 15 180 1.6 4.8 0.00 0.00 0.00 51 1016.9
20211208004041 15 180 1.6 3.2 0.00 0.00 0.00 50 1017.0
20211208002838 15 180 8.0 9.7 0.00 0.00 0.00 50 1016.8
20211208002036 16 200 3.2 6.4 0.00 0.00 0.00 50 1016.7
20211208001633 16 180 3.2 8.0 0.00 0.00 0.00 49 1016.6
20211208001233 0 184 4.8 6.4 0.00 0.00 0.00 49 1016.6
20211208000431 16 128 6.4 6.4 0.00 0.00 0.00 49 1016.6
20211207235626 16 157 1.6 6.4 0.00 0.00 0.00 49 1016.7
20211207235225 16 135 1.6 8.0 0.00 0.00 0.00 48 1016.6
20211207234824 16 117 6.4 6.4 0.00 0.00 0.00 48 1016.6
20211207234423 16 175 3.2 4.8 0.00 0.00 0.00 48 1016.5
20211207234022 16 171 1.6 17.7 0.00 0.00 0.00 48 1016.6
20211207233219 16 114 6.4 6.4 0.00 0.00 0.00 48 1016.5
20211207232819 17 147 4.8 16.1 0.00 0.00 0.00 48 1016.4
20211207232416 17 101 6.4 8.0 0.00 0.00 0.00 48 1016.4
20211207232015 17 119 4.8 8.0 0.00 0.00 0.00 48 1016.4
20211207231613 17 85 0.0 1.6 0.00 0.00 0.00 48 1016.4
20211207231212 17 99 1.6 9.7 0.00 0.00 0.00 48 1016.4
20211207230811 17 137 1.6 8.0 0.00 0.00 0.00 48 1016.6
20211207230009 17 4 6.4 9.7 0.00 0.00 0.00 48 1016.5
20211207225607 17 126 3.2 11.3 0.00 0.00 0.00 48 1016.5
20211207225206 17 49 4.8 8.0 0.00 0.00 0.00 49 1016.5
20211207224403 17 180 6.4 11.3 0.00 0.00 0.00 49 1016.6
20211207224002 17 114 6.4 12.9 0.00 0.00 0.00 49 1016.6
20211207223602 18 96 6.4 8.0 0.00 0.00 0.00 49 1016.6
20211207223201 18 180 1.6 3.2 0.00 0.00 0.00 49 1016.5
20211207222357 17 105 4.8 11.3 0.00 0.00 0.00 49 1016.5
20211207221555 18 94 9.7 11.3 0.00 0.00 0.00 49 1016.5
20211207221153 18 105 3.2 4.8 0.00 0.00 0.00 49 1016.4
20211207220753 18 180 4.8 9.7 0.00 0.00 0.00 49 1016.3
20211207220350 18 83 3.2 6.4 0.00 0.00 0.00 49 1016.3
20211207215548 18 175 9.7 11.3 0.00 0.00 0.00 50 1016.4
20211207215147 18 177 4.8 4.8 0.00 0.00 0.00 50 1016.4
20211207214747 18 177 3.2 8.0 0.00 0.00 0.00 50 1016.3
20211207214344 18 173 4.8 11.3 0.00 0.00 0.00 50 1016.4
20211207213942 18 180 9.7 9.7 0.00 0.00 0.00 50 1016.3
20211207213541 18 180 4.8 6.4 0.00 0.00 0.00 50 1016.3
20211207213140 18 180 6.4 6.4 0.00 0.00 0.00 50 1016.3
20211207212739 18 180 4.8 8.0 0.00 0.00 0.00 51 1016.4
20211207212339 18 95 1.6 4.8 0.00 0.00 0.00 51 1016.4
20211207211535 17 87 3.2 8.0 0.00 0.00 0.00 51 1016.6
20211207210733 378 80 3.2 9.7 0.00 0.00 0.00 51 1016.7
20211207204726 17 94 9.7 9.7 0.00 0.00 0.00 52 1016.6
20211207204325 17 99 3.2 9.7 0.00 0.00 0.00 52 1016.6
20211207203924 17 90 4.8 6.4 0.00 0.00 0.00 52 1016.6
20211207203524 17 101 3.2 6.4 0.00 0.00 0.00 53 1016.6
20211207202723 17 180 1.6 4.8 0.00 0.00 0.00 53 1016.7
20211207202318 17 139 1.6 8.0 0.00 0.00 0.00 53 1016.7
20211207201516 17 180 3.2 8.0 0.00 0.00 0.00 54 1016.9
20211207201116 17 132 4.8 9.7 0.00 0.00 0.00 54 1016.9
20211207200713 17 126 9.7 9.7 0.00 0.00 0.00 54 1017.0
20211207200313 17 217 4.8 6.4 0.00 0.00 0.00 55 1016.9
20211207195912 17 67 0.0 4.8 0.00 0.00 0.00 55 1016.9
20211207195511 17 144 0.0 8.0 0.00 0.00 0.00 55 1017.1
20211207195110 17 110 6.4 9.7 0.00 0.00 0.00 56 1017.1
20211207193504 16 99 8.0 8.0 0.00 0.00 0.00 57 1017.1
20211207193102 386 126 3.2 8.0 0.00 0.00 0.00 58 1017.1
20211207192701 16 99 4.8 8.0 0.00 0.00 0.00 58 1017.2
20211207192300 17 130 3.2 4.8 0.00 0.00 0.00 59 1017.4
20211207191055 17 310 0.0 1.6 0.00 0.00 0.00 61 1017.6
20211207190654 17 207 1.6 4.8 0.00 0.00 0.00 61 1017.6
20211207190255 16 175 4.8 4.8 0.00 0.00 0.00 62 1017.6
20211207185853 16 231 1.6 3.2 0.00 0.00 0.00 62 1017.6
20211207185452 15 94 1.6 3.2 0.00 0.00 0.00 63 1017.4
20211207185049 15 99 1.6 6.4 0.00 0.00 0.00 63 1017.4
20211207184247 15 193 1.6 4.8 0.00 0.00 0.00 64 1017.6
20211207183847 15 184 3.2 3.2 0.00 0.00 0.00 64 1017.5
20211207183444 14 225 0.0 1.6 0.00 0.00 0.00 63 1017.5
20211207183043 14 234 1.6 1.6 0.00 0.00 0.00 63 1017.6
20211207182641 14 99 0.0 1.6 0.00 0.00 0.00 62 1017.5
20211207181841 14 0 0.0 1.6 0.00 0.00 0.00 59 1017.7
20211207180635 13 126 4.8 6.4 0.00 0.00 0.00 58 1017.4
20211207180233 13 112 3.2 4.8 0.00 0.00 0.00 58 1017.5
20211207175832 13 148 4.8 12.9 0.00 0.00 0.00 58 1017.3
20211207175431 0 96 12.9 12.9 0.00 0.00 0.00 58 1017.3
20211207175034 13 81 6.4 8.0 0.00 0.00 0.00 58 1017.4
20211207174629 13 81 4.8 6.4 0.00 0.00 0.00 58 1017.5
20211207173826 13 90 3.2 8.0 0.00 0.00 0.00 59 1017.5
20211207171820 13 0 0.0 0.0 0.00 0.00 0.00 59 1017.2
20211207171418 13 353 0.0 0.0 0.00 0.00 0.00 59 1017.2
20211207171017 13 270 0.0 3.2 0.00 0.00 0.00 59 1017.3
20211207170616 13 270 1.6 1.6 0.00 0.00 0.00 59 1017.4
20211207165010 12 85 0.0 1.6 0.00 0.00 0.00 59 1016.9
20211207162202 12 227 0.0 0.0 0.00 0.00 0.00 60 1017.1
20211207161800 12 225 0.0 1.6 0.00 0.00 0.00 60 1017.3
20211207154551 11 270 1.6 3.2 0.00 0.00 0.00 60 1017.0
20211207153346 11 315 1.6 1.6 0.00 0.00 0.00 60 1016.7
20211207151340 11 225 0.0 1.6 0.00 0.00 0.00 60 1016.6
20211207150136 11 310 0.0 1.6 0.00 0.00 0.00 60 1016.4
20211207144531 11 315 1.6 1.6 0.00 0.00 0.00 59 1016.6
20211207143328 11 270 0.0 0.0 0.00 0.00 0.00 59 1016.5